Weather in Dmitrievka

Russia / Altai Republic     52°26′04″N   86°55′20″E
temp.,
°C
wind,
m/s
gust,
m/s
humid.,
%
clouds,
%
prec.,
mm/h
press.,
hPa
HPBL,
m
30 november, tue
tue3001:00−11ese119662 0.0 103410
04:00−11ese1196100 0.0 103411
07:00−10se1197100 0.0 103317
10:00−8se119296 0.0 103337
13:00−3sse127390 0.0 1031130
16:00−4se1188100 0.0 103010
19:00−7ese1191100 0.0 103110
22:00−9ese1191100 0.0 103210
1 december, wed
wed101:00−8se2192100 0.0 103215
04:00−8se219570 0.0 103317
07:00−11se219522 0.0 103313
10:00−9se21875 0.0 103424
13:00−1sse12705 0.0 1032136
16:00−2se11875 0.0 103110
19:00−9ese21925 0.0 103210
22:00−10ese21917 0.0 103211
2 december, thu
thu201:00−11se219321 0.0 103114
04:00−11ese219617 0.0 103015
07:00−12se219620 0.0 103018
10:00−10se22885 0.0 102935
13:00−2sse12660 0.0 1026128
16:00−4se11865 0.0 102610
19:00−10ese22905 0.0 102711
22:00−10ese22864 0.0 102617
3 december, fri
fri301:00−11se229114 0.0 102520
04:00−11se22925 0.0 102324
07:00−10se23842 0.0 102041
10:00−7se347867 0.0 101864
13:00−1se246730 0.0 1015107
16:000se2373100 0.0 101351
19:00−2s0089100 0.3 101811
22:000wsw41498100 5.5 10201014
4 december, sat
sat401:00−1w51497100 7.6 10241109
04:00−3w4148579 0.2 1027883
07:00−8sse219741 0.2 102912
10:00−7se1198100 0.0 102927
13:00−1ssw1188100 0.0 1027266
16:00−2ssw1697100 0.0 1027420
19:00−2sw31497100 1.0 10271101
22:00−2wsw41697100 1.9 10281353